Regional Weather Roundup
Issued by NWS

Home | Current Version | Previous Version | Graphics & Text | Print | Product List | Glossary On
Versions: 1 2 3 4 5 6 7 8 9 10 11 12 13 14 15 16 17 18 19 20 21 22 23 24 25 26 27 28 29 30 31 32 33 34 35 36 37 38 39 40 41 42 43 44 45 46 47 48 49 50
000
ASUS43 KTOP 261259
RWRKS

WEATHER ROUNDUP FOR KANSAS
NATIONAL WEATHER SERVICE GOODLAND KS
800 AM CDT MON SEP 26 2016

NOTE:  "FAIR" INDICATES FEW OR NO CLOUDS BELOW 12,000 FEET WITH NO
SIGNIFICANT WEATHER AND/OR OBSTRUCTIONS TO VISIBILITY.

KSZ001>006-013>018-027>032-041>047-261400-
NORTHWEST KANSAS

CITY           SKY/WX    TMP DP  RH WIND       PRES   REMARKS
GOODLAND       CLEAR     40  32  73 W8        30.38S
HAYS           CLEAR     39  27  60 NW7       30.35R
HILL CITY      CLEAR     39  35  86 W5        30.37R FOG
RUSSELL        CLEAR     42  39  89 W6        30.33R
$$

KSZ061>065-074>080-084>089-261400-
SOUTHWEST KANSAS

CITY           SKY/WX    TMP DP  RH WIND       PRES   REMARKS
DODGE CITY     CLOUDY    41  32  70 NW5       30.37S
ELKHART          N/A     45  30  55 W7          N/A
GARDEN CITY    CLOUDY    39  32  76 W5        30.38R
GREAT BEND     CLEAR     43  32  65 NW5       30.36R
LIBERAL        CLEAR     41  30  65 NW5       30.39R
$$

KSZ066>073-081>083-090>101-261400-
SOUTHEAST KANSAS

CITY           SKY/WX    TMP DP  RH WIND       PRES   REMARKS
CHANUTE        CLEAR     51  48  89 NW6       30.28R
COFFEYVILLE    CLEAR     53  50  89 NW3       30.27R
HUTCHINSON     CLEAR     46  42  86 NW7       30.33R
MEDICINE LODGE   N/A     45  41  86 NW3         N/A
NEWTON         CLEAR    N/A N/A N/A NW6       30.32R
PARSONS        CLEAR     51  47  86 N3        30.28R
WICHITA INTL   PTCLDY    49  45  86 NW6       30.31R
WICHITA JABRA  CLEAR     50  43  77 N7        30.30R
WINFIELD       CLEAR     49  46  90 N3        30.31R
$$

KSZ007>012-019>026-033>040-048>060-102>105-261400-
NORTHEAST KANSAS

CITY           SKY/WX    TMP DP  RH WIND       PRES   REMARKS
CONCORDIA      CLEAR     45  39  79 W8        30.32R
EMPORIA        CLEAR     48  44  86 W5        30.29R
LAWRENCE       CLEAR     47  46  97 W6        30.27S
MANHATTAN      CLEAR     47  43  86 CALM      30.30R
OLATHE IND     CLEAR     50  46  86 NW6       30.27R
OLATHE EXE     CLEAR     51  44  77 NW6       30.26R
SALINA         CLEAR     46  41  82 CALM      30.33R
TOPEKA BILLARD CLEAR     49  46  90 W5        30.28R
TOPEKA FORBES  CLEAR     49  44  83 NW5       30.27S
$$



USA.gov is the U.S. government's official web portal to all federal, state and local government web resources and services.